Location: Paddlesworth
(51.1000°N, 1.1333°E)
Time: 18:34:57
(UTC+00:00)

Cosmos 1633 Rocket - Pass Details

Date: 11 May 2021
Orbit: 608 x 622 km, 82.5° (Epoch: 21 June)

Event Time Altitude Azimuth Distance (km) Brightness Sun altitude
Rises 20:31:51 0° 349° (NNW) 2,902 7.5 -8.2°
Reaches altitude 10° 20:34:05 10° 349° (N) 1,994 6.6 -8.4°
Maximum altitude 20:38:30 86° 265° (W) 628 3.1 -8.9°
Drops below altitude 10° 20:42:55 10° 173° (S) 1,985 5.2 -9.4°
Enters shadow 20:43:40 - 173° (S) 2,286 5.5 -9.5°
